• MPC Preparation (Info)

  • MPEC 2019-E67 : 2019 EP1

    The following Minor Planet Electronic Circular may be linked-to from your own Web pages, but must not otherwise be redistributed electronically.

    A form allowing access to any MPEC is at the bottom of this page.


    Read MPEC 2019-E66 Read MPEC 2019-E68


    M.P.E.C. 2019-E67                                Issued 2019 Mar. 7, 22:38 UT
    
         The Minor Planet Electronic Circulars contain information on unusual
             minor planets and routine data on comets.  They are published
        on behalf of Division F of the International Astronomical Union by the
              Minor Planet Center, Smithsonian Astrophysical Observatory,
                              Cambridge, MA 02138, U.S.A.
    
                 Prepared using the Tamkin Foundation Computer Network
    
                                  MPC@CFA.HARVARD.EDU
                URL https://www.minorplanetcenter.net/    ISSN 1523-6714
    
                                       2019 EP1
    
    Observations:
         K19E01P* C2019 03 05.31800 11 09 52.16 +30 15 24.5          21.1 GVEE067G96
         K19E01P  C2019 03 05.32320 11 09 53.51 +30 15 07.5                VEE067G96
         K19E01P  C2019 03 05.32840 11 09 54.87 +30 14 51.3          21.0 GVEE067G96
         K19E01P  C2019 03 05.35822 11 10 02.62 +30 13 12.6          21.1 GVEE067I52
         K19E01P  C2019 03 05.36072 11 10 03.27 +30 13 04.3          21.2 GVEE067I52
         K19E01P  C2019 03 05.36321 11 10 03.89 +30 12 56.1          22.1 GVEE067I52
         K19E01P  C2019 03 05.36571 11 10 04.55 +30 12 47.7          21.9 GVEE067I52
         K19E01P KC2019 03 05.89117711 12 48.01 +29 43 17.6          21.2 GVEE067L01
         K19E01P KC2019 03 05.89376311 12 48.70 +29 43 09.3          21.2 GVEE067L01
         K19E01P KC2019 03 05.89699711 12 49.57 +29 42 58.3          21.3 GVEE067L01
         K19E01P pC2019 03 05.90045311 12 50.52 +29 42 47.4          21.6 GVEE067L01
         K19E01P pC2019 03 05.90390611 12 51.50 +29 42 36.5          21.3 GVEE067L01
         K19E01P  C2019 03 06.15432111 14 10.30 +29 28 30.0          20.3 GVEE067H01
         K19E01P  C2019 03 06.17433611 14 15.90 +29 27 25.7          20.9 GVEE067H01
         K19E01P  C2019 03 06.17737111 14 16.71 +29 27 15.9          20.5 GVEE067H01
         K19E01P  C2019 03 06.19169311 14 20.66 +29 26 29.5          20.7 GVEE067H01
         K19E01P KC2019 03 06.21725211 14 25.51 +29 25 02.2          20.9 VuEE067H21
         K19E01P KC2019 03 06.22334911 14 27.14 +29 24 41.8          21.0 VuEE067H21
         K19E01P KC2019 03 06.22883511 14 28.60 +29 24 23.4          20.9 VuEE067H21
         K19E01P |C2019 03 07.18315 11 19 18.54 +28 30 07.9          20.8 GUEE067807
         K19E01P |C2019 03 07.18925 11 19 20.15 +28 29 46.2          20.8 GUEE067807
         K19E01P |C2019 03 07.19536 11 19 21.74 +28 29 24.6          20.8 GUEE067807
         K19E01P  C2019 03 07.21659 11 19 31.58 +28 26 24.7          20.8 GVEE067I52
         K19E01P  C2019 03 07.22075 11 19 32.70 +28 26 09.3          20.7 GVEE067I52
         K19E01P  C2019 03 07.22324 11 19 33.41 +28 26 01.1          20.7 GVEE067I52
    
    Observer details:
    807 Cerro Tololo Observatory, La Serena.  Observers T. Linder, R. Holmes.
        1.00-m f/10.0 astrograph + CCD.
    G96 Mt. Lemmon Survey.  Observer E. J. Christensen.  Measurers B. M. Africano,
        E. J. Christensen, G. A. Farneth, D. C. Fuls, A. R. Gibbs, A. D. Grauer,
        H. Groeller, R. A. Kowalski, S. M. Larson, G. J. Leonard, T. A. Pruyne,
        R. L. Seaman, F. C. Shelly.  1.5-m reflector + 10K CCD.
    H01 Magdalena Ridge Observatory, Socorro.  Observers W. H. Ryan, E. V. Ryan.
        Measurer W. H. Ryan.  2.4-m f/8.9 Ritchey-Chretien + CCD.
    H21 Astronomical Research Observatory, Westfield.  Observer R. Holmes.
        Measurers S. Foglia, L. Buzzi, T. Linder, R. Holmes.  0.76-m f/3.0
        astrograph + CCD.
    I52 Steward Observatory, Mt. Lemmon Station.  Observers D. C. Fuls,
        T. A. Pruyne, R. A. Kowalski.  Measurers B. M. Africano,
        E. J. Christensen, G. A. Farneth, D. C. Fuls, A. R. Gibbs, A. D. Grauer,
        H. Groeller, R. A. Kowalski, S. M. Larson, G. J. Leonard, T. A. Pruyne,
        R. L. Seaman, F. C. Shelly.  1.0-m reflector + CCD.
    L01 Visnjan Observatory, Tican.  Observer K. Korlevic.  1.0-m f/2.9 reflector
        + CCD.
    
    Orbital elements:
    2019 EP1                                                 Earth MOID = 0.0809 AU
    Epoch 2019 Apr. 27.0 TT = JDT 2458600.5                 MPC
    M  20.22576              (2000.0)            P               Q
    n   0.42806511     Peri.  152.47577     -0.98213775     -0.18742933
    a   1.7436641      Node    16.74620     +0.16030611     -0.87967466
    e   0.3859859      Incl.    3.30349     +0.09852607     -0.43708436
    P   2.30           H   25.4           G   0.15           U   7
    Residuals in seconds of arc
    190305 G96  0.3+  0.5-    190305 L01  0.0   0.3-    190306 H21  0.1-  0.2+
    190305 G96  0.2+  0.5-    190305 L01  0.1+  0.1+    190307 807  0.0   0.2-
    190305 G96  0.3+  0.3+    190305 L01  0.7+  0.5+    190307 807  0.2+  0.1-
    190305 I52  0.1-  0.0     190306 H01  0.2-  0.1-    190307 807  0.0   0.2+
    190305 I52  0.1-  0.1+    190306 H01  0.1+  0.1-    190307 I52  0.2-  0.5+
    190305 I52  0.5-  0.2+    190306 H01  0.3-  0.1-    190307 I52  0.3-  0.5-
    190305 I52  0.5-  0.1+    190306 H01  0.1-  0.1-    190307 I52  0.2+  0.0
    190305 L01  0.3+  0.0     190306 H21  0.1-  0.1-
    190305 L01  0.1+  0.2+    190306 H21  0.1-  0.1+
    
    Ephemeris:
    2019 EP1                 a,e,i = 1.74, 0.39, 3                   q = 1.0706
    Date    TT    R. A. (2000) Decl.     Delta      r     Elong.  Phase     V
    2019 02 05    09 24 59.6 +38 56 32   0.1490  1.1245   157.0    20.0    22.5
    ...
    2019 02 20    10 09 21.7 +37 52 38   0.1097  1.0877   153.3    24.1    21.9
    ...
    2019 02 28    10 43 50.9 +34 19 32   0.09464 1.0762   153.9    23.9    21.6
    ...
    2019 03 06    11 13 17.9 +29 37 45   0.08650 1.0717   156.2    21.9    21.3
    2019 03 07    11 18 21.4 +28 39 42   0.08545 1.0712   156.8    21.4    21.3
    2019 03 08    11 23 25.7 +27 38 34   0.08450 1.0709   157.4    20.9    21.2
    ...
    2019 03 14    11 53 32.7 +20 33 45   0.08092 1.0711   161.6    17.0    21.0
    ...
    2019 03 22    12 30 02.8 +09 38 47   0.08236 1.0769   168.0    11.1    20.8
    ...
    2019 04 06    13 18 14.8 -07 52 41   0.1039  1.1040   174.6     4.9    21.1
    
    A. U. Tomatic                (C) Copyright 2019 MPC           M.P.E.C. 2019-E67
    

    Read MPEC 2019-E66 Read MPEC 2019-E68


    MPEC number:

    Enter an MPEC number in one of the following forms:

    • 1997-B01 (the full form)
    • J97B01 (the packed version of the full form)
    • B01 (the abbreviated form)